SIA24B WSSS-KJFK

Flight info

Callsign SIA24B
Flight time N/A
Altitude 32000
Route TOMAN3A TOMAN L625 AKMON/K0945F320 L625 ANOKI/N0506F320 L625 ARESI/N0500F350 L625 MEVIN B462 KAZIK Y59 AZAMA Y57 AKTAP/N0487F370 Y57 PUTER A590 POWAL/N0489F390 A590 HAMND DCT TED J511 GKN/N0484F410 J124 ORT DCT 63N140W 63N130W 62N120W 59N110W 5530N10000W DCT MISAX DCT SSM DCT SIKBO DCT AHPAH Q140 MEMMS PUCKY1
Aircraft A359/H-SDE2E3GHIJ3J4J5LM1ORWXY/LB1D1

Departure

Time 2026-05-01 08:52
Airport Singapore Changi Airport (WSSS)

Arrival

Time N/A
Airport John F. Kennedy International Airport (KJFK)
Time Latitude Longitude Altitude Speed Heading
2026-05-01 07:44 1.35354 103.98418 36 ft 0 kts 114°
2026-05-01 08:39 1.35364 103.98395 35 ft 4 kts 114°
2026-05-01 08:39 1.35372 103.98376 33 ft 4 kts 105°
2026-05-01 08:40 1.35372 103.98328 33 ft 4 kts 81°
2026-05-01 08:40 1.35370 103.98304 33 ft 4 kts 127°
2026-05-01 08:40 1.35387 103.98295 32 ft 4 kts 161°
2026-05-01 08:41 1.35407 103.98287 36 ft 4 kts 158°
2026-05-01 08:41 1.35433 103.98279 35 ft 3 kts 171°
2026-05-01 08:41 1.35452 103.98278 35 ft 2 kts 184°
2026-05-01 08:41 1.35473 103.98282 33 ft 4 kts 204°
2026-05-01 08:42 1.35479 103.98285 35 ft 0 kts 203°
2026-05-01 08:45 1.35478 103.98284 35 ft 1 kts 203°
2026-05-01 08:45 1.35468 103.98280 33 ft 3 kts 203°
2026-05-01 08:46 1.35435 103.98266 36 ft 7 kts 203°
2026-05-01 08:46 1.35390 103.98246 35 ft 8 kts 203°
2026-05-01 08:46 1.35326 103.98218 36 ft 12 kts 203°
2026-05-01 08:46 1.35237 103.98179 36 ft 16 kts 203°
2026-05-01 08:47 1.35150 103.98144 36 ft 13 kts 202°
2026-05-01 08:47 1.35055 103.98105 36 ft 16 kts 203°
2026-05-01 08:47 1.34970 103.98070 36 ft 12 kts 202°
2026-05-01 08:47 1.34914 103.98048 37 ft 8 kts 202°
2026-05-01 08:48 1.34853 103.98023 37 ft 9 kts 202°
2026-05-01 08:48 1.34819 103.97982 37 ft 9 kts 259°
2026-05-01 08:48 1.34833 103.97934 37 ft 0 kts 292°
2026-05-01 08:48 1.34833 103.97933 37 ft 1 kts 292°
2026-05-01 08:49 1.34836 103.97926 37 ft 2 kts 292°
2026-05-01 08:49 1.34845 103.97903 37 ft 5 kts 292°
2026-05-01 08:49 1.34852 103.97887 37 ft 1 kts 292°
2026-05-01 08:49 1.34853 103.97885 37 ft 0 kts 292°
2026-05-01 08:50 1.34856 103.97876 37 ft 3 kts 292°
2026-05-01 08:50 1.34872 103.97838 37 ft 9 kts 292°
2026-05-01 08:50 1.34912 103.97775 37 ft 13 kts 321°
2026-05-01 08:50 1.34995 103.97779 37 ft 13 kts 27°
2026-05-01 08:51 1.35016 103.97789 37 ft 2 kts 27°
2026-05-01 08:51 1.35031 103.97797 37 ft 9 kts 27°
2026-05-01 08:51 1.35276 103.97918 37 ft 74 kts 24°
2026-05-01 08:51 1.35953 103.98186 37 ft 135 kts 21°
2026-05-01 08:52 1.36993 103.98619 40 ft 187 kts 22°
2026-05-01 08:52 1.38219 103.99170 588 ft 196 kts 26°
2026-05-01 08:52 1.39035 103.99592 1034 ft 201 kts 29°
2026-05-01 08:52 1.40358 104.00321 1376 ft 232 kts 29°
2026-05-01 08:53 1.41885 104.00951 2003 ft 243 kts 20°
2026-05-01 08:53 1.43509 104.01542 2268 ft 255 kts 21°
2026-05-01 08:53 1.45193 104.02187 2657 ft 261 kts 22°
2026-05-01 08:53 1.46874 104.02916 2994 ft 265 kts 30°
2026-05-01 08:54 1.48211 104.04164 3356 ft 266 kts 60°
2026-05-01 08:54 1.48695 104.05927 3784 ft 267 kts 92°
2026-05-01 08:54 1.48237 104.07709 4303 ft 266 kts 113°
2026-05-01 08:54 1.47457 104.09387 4791 ft 267 kts 115°
2026-05-01 08:55 1.46660 104.11048 5299 ft 270 kts 115°
2026-05-01 08:55 1.45834 104.12751 6041 ft 272 kts 115°
2026-05-01 08:55 1.45017 104.14448 6877 ft 270 kts 115°
2026-05-01 08:55 1.44229 104.16158 7602 ft 273 kts 114°
2026-05-01 08:56 1.43435 104.17911 8157 ft 277 kts 114°
2026-05-01 08:56 1.42630 104.19670 8725 ft 280 kts 114°
2026-05-01 08:56 1.41808 104.21446 9249 ft 282 kts 114°
2026-05-01 08:56 1.40978 104.23235 9746 ft 284 kts 114°
2026-05-01 08:57 1.40142 104.25038 10145 ft 288 kts 114°
2026-05-01 08:57 1.39295 104.26867 10341 ft 300 kts 114°
2026-05-01 08:57 1.38401 104.28799 10504 ft 312 kts 114°
2026-05-01 08:57 1.37471 104.30810 10705 ft 324 kts 114°
2026-05-01 08:58 1.36509 104.32891 10880 ft 335 kts 114°
2026-05-01 08:58 1.35515 104.35039 11062 ft 345 kts 114°
2026-05-01 08:58 1.34493 104.37248 11228 ft 355 kts 114°
2026-05-01 08:58 1.33493 104.39541 11400 ft 364 kts 109°
2026-05-01 08:59 1.33038 104.42042 11641 ft 368 kts 91°
2026-05-01 08:59 1.33056 104.44616 11987 ft 371 kts 88°
2026-05-01 08:59 1.33131 104.47171 12337 ft 373 kts 88°
2026-05-01 08:59 1.33205 104.49761 12702 ft 375 kts 88°
2026-05-01 09:00 1.33275 104.52380 13046 ft 377 kts 88°
2026-05-01 09:00 1.33342 104.55019 13407 ft 379 kts 88°
2026-05-01 09:00 1.33408 104.57661 13743 ft 380 kts 88°
2026-05-01 09:00 1.33472 104.60289 14035 ft 382 kts 88°
2026-05-01 09:01 1.33538 104.62976 14332 ft 384 kts 88°
2026-05-01 09:01 1.33601 104.65621 14626 ft 386 kts 88°
2026-05-01 09:01 1.33666 104.68324 14923 ft 387 kts 88°
2026-05-01 09:01 1.33731 104.71022 15211 ft 389 kts 88°
2026-05-01 09:02 1.33796 104.73724 15513 ft 391 kts 88°
2026-05-01 09:02 1.33861 104.76448 15802 ft 392 kts 88°
2026-05-01 09:02 1.33927 104.79177 16089 ft 394 kts 88°
2026-05-01 09:02 1.33993 104.81930 16378 ft 395 kts 88°
2026-05-01 09:03 1.34058 104.84655 16659 ft 397 kts 88°
2026-05-01 09:03 1.34124 104.87425 16945 ft 399 kts 88°
2026-05-01 09:03 1.34190 104.90200 17226 ft 400 kts 88°
2026-05-01 09:03 1.34257 104.92991 17501 ft 402 kts 88°
2026-05-01 09:04 1.34325 104.95802 17741 ft 405 kts 88°
2026-05-01 09:04 1.34393 104.98618 18013 ft 406 kts 88°
2026-05-01 09:04 1.34460 105.01422 18259 ft 408 kts 88°
2026-05-01 09:04 1.34529 105.04271 18489 ft 409 kts 88°
2026-05-01 09:05 1.34597 105.07126 18722 ft 411 kts 88°
2026-05-01 09:05 1.34666 105.09982 18948 ft 412 kts 88°
2026-05-01 09:05 1.34733 105.12812 19177 ft 413 kts 88°
2026-05-01 09:05 1.34803 105.15701 19405 ft 415 kts 88°
2026-05-01 09:06 1.34872 105.18598 19624 ft 416 kts 88°
2026-05-01 09:06 1.34941 105.21501 19843 ft 418 kts 88°
2026-05-01 09:06 1.35011 105.24412 20071 ft 419 kts 88°
2026-05-01 09:06 1.35080 105.27295 20290 ft 420 kts 88°
2026-05-01 09:07 1.35150 105.30207 20503 ft 422 kts 88°
2026-05-01 09:07 1.35220 105.33157 20715 ft 424 kts 88°
2026-05-01 09:07 1.35290 105.36106 20926 ft 425 kts 88°
2026-05-01 09:07 1.35361 105.39065 21141 ft 426 kts 88°
2026-05-01 09:08 1.35431 105.42008 21367 ft 428 kts 88°
2026-05-01 09:08 1.35503 105.45017 21580 ft 429 kts 88°
2026-05-01 09:08 1.35574 105.48010 21802 ft 431 kts 88°
2026-05-01 09:08 1.35646 105.51013 22020 ft 432 kts 88°
2026-05-01 09:09 1.35717 105.54022 22237 ft 434 kts 88°
2026-05-01 09:09 1.35788 105.57006 22451 ft 435 kts 88°
2026-05-01 09:09 1.35860 105.60034 22682 ft 437 kts 88°
2026-05-01 09:09 1.35933 105.63070 22885 ft 438 kts 88°
2026-05-01 09:10 1.36005 105.66126 23103 ft 440 kts 88°
2026-05-01 09:10 1.36123 105.69191 23313 ft 441 kts 85°
2026-05-01 09:10 1.36598 105.72232 23496 ft 443 kts 76°
2026-05-01 09:10 1.37575 105.75116 23662 ft 445 kts 66°
2026-05-01 09:11 1.39072 105.77831 23825 ft 447 kts 56°
2026-05-01 09:11 1.41042 105.80254 24002 ft 450 kts 46°
2026-05-01 09:11 1.43424 105.82296 24165 ft 453 kts 36°
2026-05-01 09:11 1.46121 105.83960 24367 ft 455 kts 31°
2026-05-01 09:12 1.48913 105.85473 24550 ft 457 kts 29°
2026-05-01 09:12 1.51745 105.86925 24748 ft 458 kts 28°
2026-05-01 09:12 1.54609 105.88365 24949 ft 460 kts 28°
2026-05-01 09:12 1.57469 105.89804 25147 ft 461 kts 28°
2026-05-01 09:13 1.60340 105.91261 25357 ft 462 kts 28°
2026-05-01 09:13 1.63206 105.92727 25579 ft 464 kts 28°
2026-05-01 09:13 1.66081 105.94207 25791 ft 465 kts 28°
2026-05-01 09:13 1.68970 105.95701 26004 ft 467 kts 28°
2026-05-01 09:14 1.71864 105.97200 26239 ft 468 kts 28°
2026-05-01 09:14 1.74763 105.98703 26468 ft 470 kts 28°
2026-05-01 09:14 1.77672 106.00210 26699 ft 472 kts 28°
2026-05-01 09:14 1.80592 106.01723 26924 ft 473 kts 28°
2026-05-01 09:15 1.83524 106.03242 27163 ft 475 kts 28°
2026-05-01 09:15 1.86460 106.04762 27369 ft 477 kts 28°
2026-05-01 09:15 1.89429 106.06300 27590 ft 479 kts 28°
2026-05-01 09:15 1.92391 106.07836 27835 ft 481 kts 28°
2026-05-01 09:16 1.95368 106.09381 28068 ft 483 kts 28°
2026-05-01 09:16 1.98321 106.10908 28286 ft 484 kts 28°
2026-05-01 09:16 2.01319 106.12456 28505 ft 486 kts 28°
2026-05-01 09:17 2.07347 106.15570 28939 ft 489 kts 27°
2026-05-01 09:17 2.10383 106.17139 29147 ft 491 kts 27°
2026-05-01 09:17 2.16513 106.20309 29536 ft 494 kts 27°
2026-05-01 09:18 2.19567 106.21889 29735 ft 495 kts 27°
2026-05-01 09:18 2.25666 106.25045 30051 ft 499 kts 27°
2026-05-01 09:19 2.31861 106.28251 30347 ft 501 kts 27°
2026-05-01 09:19 2.34963 106.29856 30487 ft 502 kts 27°
2026-05-01 09:19 2.38080 106.31470 30642 ft 503 kts 27°
2026-05-01 09:20 2.44298 106.34688 31023 ft 503 kts 27°
2026-05-01 09:20 2.50502 106.37899 31493 ft 500 kts 27°
2026-05-01 09:21 2.56640 106.41078 31805 ft 501 kts 28°
2026-05-01 09:21 2.65983 106.45923 31832 ft 505 kts 27°
2026-05-01 09:22 2.78463 106.52384 31831 ft 505 kts 27°
2026-05-01 09:23 2.87797 106.57218 31833 ft 505 kts 27°
2026-05-01 09:24 2.97168 106.62065 31831 ft 505 kts 27°
2026-05-01 09:25 3.09680 106.68539 31832 ft 506 kts 27°
2026-05-01 09:26 3.19026 106.73378 31831 ft 504 kts 27°
2026-05-01 09:26 3.28380 106.78222 31829 ft 504 kts 27°
2026-05-01 09:27 3.37739 106.83070 31836 ft 504 kts 27°
2026-05-01 09:28 3.43941 106.86283 31837 ft 504 kts 27°
2026-05-01 09:28 3.50180 106.89516 31836 ft 504 kts 27°
2026-05-01 09:29 3.59271 106.94832 31834 ft 504 kts 34°
2026-05-01 09:30 3.67897 107.00875 31835 ft 504 kts 36°
2026-05-01 09:30 3.76474 107.06957 31840 ft 505 kts 36°
2026-05-01 09:31 3.82219 107.11019 31835 ft 505 kts 36°
2026-05-01 09:32 3.90797 107.17078 31834 ft 505 kts 36°
2026-05-01 09:32 3.99416 107.23169 31834 ft 505 kts 36°
2026-05-01 09:33 4.05124 107.27203 31836 ft 505 kts 36°
2026-05-01 09:34 4.13736 107.33291 31837 ft 505 kts 36°
2026-05-01 09:34 4.21373 107.38691 31835 ft 505 kts 36°
2026-05-01 09:35 4.29994 107.44789 31837 ft 504 kts 35°
2026-05-01 09:36 4.32507 107.46567 31837 ft 504 kts 35°
2026-05-01 09:36 4.37259 107.49929 31837 ft 504 kts 36°
2026-05-01 09:37 4.42978 107.53976 31837 ft 504 kts 36°
2026-05-01 09:37 4.51568 107.60057 31843 ft 503 kts 36°
2026-05-01 09:38 4.60162 107.66142 31842 ft 503 kts 36°
2026-05-01 09:39 4.68710 107.72195 31845 ft 504 kts 36°
2026-05-01 09:39 4.74449 107.76261 31844 ft 504 kts 36°
2026-05-01 09:40 4.83048 107.82354 31845 ft 504 kts 36°
2026-05-01 09:41 4.88765 107.86407 31847 ft 504 kts 36°
2026-05-01 09:41 4.97344 107.92489 31849 ft 504 kts 36°
2026-05-01 09:42 5.03075 107.96548 31849 ft 504 kts 36°
2026-05-01 09:43 5.14571 108.04602 31846 ft 506 kts 35°
2026-05-01 09:43 5.20329 108.08644 31850 ft 506 kts 35°
2026-05-01 09:44 5.28995 108.14736 31851 ft 506 kts 35°
2026-05-01 09:45 5.34765 108.18793 31851 ft 506 kts 35°
2026-05-01 09:45 5.43419 108.24880 31850 ft 506 kts 35°
2026-05-01 09:46 5.49137 108.28902 31851 ft 503 kts 35°
2026-05-01 09:46 5.54885 108.32948 31853 ft 503 kts 35°
2026-05-01 09:47 5.60623 108.36986 31850 ft 503 kts 35°
2026-05-01 09:47 5.66335 108.41008 31853 ft 503 kts 35°
2026-05-01 09:48 5.72072 108.45048 31849 ft 503 kts 35°
2026-05-01 09:48 5.77818 108.49095 31852 ft 503 kts 35°
2026-05-01 09:49 5.83489 108.53091 31855 ft 503 kts 35°
2026-05-01 09:49 5.89250 108.57151 31854 ft 503 kts 35°
2026-05-01 09:50 5.94981 108.61191 31852 ft 503 kts 36°
2026-05-01 09:50 6.00712 108.65232 31853 ft 503 kts 35°
2026-05-01 09:51 6.06411 108.69251 31854 ft 503 kts 36°
2026-05-01 09:51 6.12143 108.73296 31854 ft 503 kts 36°
2026-05-01 09:52 6.17882 108.77345 31852 ft 503 kts 36°
2026-05-01 09:52 6.23615 108.81392 31852 ft 502 kts 36°
2026-05-01 09:53 6.29297 108.85404 31854 ft 502 kts 36°
2026-05-01 09:53 6.35007 108.89437 31854 ft 502 kts 35°
2026-05-01 09:54 6.40734 108.93482 31853 ft 502 kts 35°
2026-05-01 09:54 6.46446 108.97519 31852 ft 501 kts 36°
2026-05-01 09:55 6.52121 109.01530 31854 ft 501 kts 36°
2026-05-01 09:55 6.57820 109.05560 31854 ft 500 kts 36°
2026-05-01 09:56 6.63527 109.09596 31854 ft 500 kts 36°
2026-05-01 09:56 6.69228 109.13630 31851 ft 500 kts 35°
2026-05-01 09:57 6.74931 109.17666 31851 ft 500 kts 35°